Location: Libas
(9.8833°N, 125.9833°E)
Time: 21:43:17
(UTC+00:00)

Cosmos 2228 - Pass Details

Date: 27 October 2020
Orbit: 590 x 617 km, 82.5° (Epoch: 26 November)

Event Time Altitude Azimuth Distance (km) Brightness Sun altitude
Rises 20:44:02 0° 352° (N) 2,870 6.3 -10.9°
Reaches altitude 10° 20:46:15 10° 350° (N) 1,969 5.4 -10.3°
Maximum altitude 20:50:35 72° 267° (W) 649 3.0 -9.3°
Drops below altitude 10° 20:54:57 10° 182° (S) 1,974 5.8 -8.2°
Sets 20:57:10 0° 180° (S) 2,878 6.6 -7.7°
